sat.trackr.live / text

‹ back to catalog

STARLINK-37097

NORAD 68238 · 2026-054G

PAYLOAD ACTIVE UNKNOWN

§ Identity

Operator
Country
US
Launch date
2026-03-17
Launch site
AFETR
Launch vehicle
Mass (kg)
RCS (m²)

Purposes: comms

External: N2YO · Heavens-Above · Gunter

§ Orbital elements

Epoch: 2026-05-25T04:00:03.998880Z

Period
93.79 min
Inclination
53.1596°
Eccentricity
0.0001003
Mean motion
15.35389749 rev/d
Perigee alt
459.1 km
Apogee alt
460.4 km
Semi-major
6,837.9 km
B*
4.2168e-4
RAAN
294.9462°
Arg perigee
69.9913°
Mean anomaly
312.7053°
Rev number
584

§ Raw data

STARLINK-370971 68238U 26054G   26145.16671295  .00014352  00000+0  42168-3 0  99972 68238  53.1596 294.9462 0001003  69.9913 312.7053 15.35389749  5847

JSON: /api/v1/satellites/68238 · /tle

For live sub-satellite position, see the globe view (requires WebGL).

§ Visibility from observer

Set your observer location to see the next 7 days of passes ≥ 10°. The values pass through the URL so the page stays shareable.

No JS? Fill the form by hand. The geolocation button needs JavaScript.